This demonstration page uses our WeatherBlox Daily Observations layout. Learn more.

Left ArrowRight Arrow

Hourly Observations for May 23, 2015

Temp ( °F °C ) Dew Point ( °F °C ) Humidity (%) Winds ( mph kmh ) Pressure ( in mb ) Visibility ( mi km ) Precip ( " mm )
12:53 am 00:53 Cloudy 72 22.2 63 17.2 73 73 SSE 17 28 29.84 1011 10 16 0.00 0.00
1:34 am 01:34 Cloudy with Nearby Thunderstorms 72 22 64 18 78 78 SE 24 39 29.77 1008 8 13 0.00 0.00
1:53 am 01:53 Cloudy with Nearby Thunderstorms 71 21.7 65 18.3 81 81 SE 15 24 29.82 1010 10 16 0.01 0.25
2:10 am 02:10 Cloudy 72 22 64 18 78 78 SE 16 26 29.80 1009 10 16 0.00 0.00
2:41 am 02:41 Mostly Clear 71 21.7 65 18.3 81 81 SE 14 22 29.77 1008 10 16 0.00 0.00
2:53 am 02:53 Mostly Clear 70 21.1 65 18.3 84 84 SE 13 20 29.80 1009 10 16 0.00 0.00
3:53 am 03:53 Clear 69 20.6 64 17.8 84 84 SE 14 22 29.79 1009 10 16 0.00 0.00
4:53 am 04:53 Clear 69 20.6 63 17.2 81 81 SE 12 19 29.78 1009 10 16 0.00 0.00
5:53 am 05:53 Clear 68 20 62 16.7 81 81 SSE 9 15 29.78 1009 10 16 0.00 0.00
6:53 am 06:53 Sunny 66 18.9 61 16.1 84 84 SE 9 15 29.78 1009 10 16 0.00 0.00
7:53 am 07:53 Sunny 68 20 60 15.6 76 76 SE 9 15 29.80 1009 10 16 0.00 0.00
8:53 am 08:53 Sunny 70 21.1 60 15.6 71 71 SE 12 19 29.83 1010 10 16 0.00 0.00
9:53 am 09:53 Sunny 73 22.8 59 15 62 62 SE 14 22 29.84 1011 10 16 0.00 0.00
10:53 am 10:53 Sunny 75 23.9 59 15 58 58 SSE 15 24 29.83 1010 10 16 0.00 0.00
11:53 am 11:53 Sunny 80 26.7 57 13.9 45 45 SSE 12 19 29.80 1009 10 16 0.00 0.00
12:53 pm 12:53 Sunny 86 30 51 10.6 30 30 SSW 14 22 29.77 1008 10 16 0.00 0.00
1:53 pm 13:53 Sunny 88 31.1 47 8.3 24 24 SSE 16 26 29.72 1007 10 16 0.00 0.00
2:05 pm 14:05 Partly Cloudy with Thunderstorms 87 30.6 46 7.8 24 24 SSE 14 22 29.65 1004 10 16 0.00 0.00
2:39 pm 14:39 Cloudy with Nearby Thunderstorms 75 23.9 53 11.7 46 46 W 25 41 29.71 1006 7 11 0.03 0.76
2:42 pm 14:42 Cloudy with Strong Thunderstorms 72 22 55 13 57 57 W 18 30 29.77 1008 2 3 0.00 0.00
2:49 pm 14:49 Cloudy with Strong Thunderstorms 68 20 57 14 69 69 NNW 8 13 29.77 1008 2 2 0.19 4.83
2:53 pm 14:53 Cloudy with Thunderstorms 68 20 58 14.4 70 70 NW 8 13 29.77 1008 4 6 0.19 4.83
3:51 pm 15:51 Mostly Cloudy with Nearby Thunderstorms 66 19 57 14 73 73 ENE 10 17 29.71 1006 10 16 0.03 0.76
3:53 pm 15:53 Mostly Cloudy with Nearby Thunderstorms 67 19.4 58 14.4 73 73 ENE 8 13 29.71 1006 10 16 0.03 0.76
4:03 pm 16:03 Mostly Sunny 66 19 59 15 78 78 ESE 5 7 29.71 1006 10 16 0.00 0.00
4:53 pm 16:53 Mostly Sunny 70 21.1 60 15.6 71 71 S 9 15 29.75 1008 10 16 0.00 0.00
5:19 pm 17:19 Mostly Cloudy with Nearby Thunderstorms 68 20 61 16.1 78 78 SE 20 31 29.74 1007 10 16 0.00 0.03
5:36 pm 17:36 Cloudy with Light Rain 68 20 57 14 69 69 SSE 16 26 29.74 1007 10 16 0.00 0.00
5:46 pm 17:46 Cloudy with Nearby Thunderstorms 68 20 54 12 60 60 SSE 12 19 29.71 1006 9 14 0.00 0.00
5:53 pm 17:53 Cloudy with Thunderstorms 69 20.6 53 11.7 57 57 SSE 16 26 29.72 1006 10 16 0.00 0.03
6:10 pm 18:10 Cloudy with Light Rain 66 19 55 13 68 68 SSE 15 24 29.77 1008 10 16 0.00 0.00
6:53 pm 18:53 Sunny 65 18.3 57 13.9 76 76 SE 14 22 29.74 1007 10 16 0.02 0.51
7:53 pm 19:53 Sunny 64 17.8 56 13.3 75 75 ESE 8 13 29.72 1006 10 16 0.00 0.00
8:53 pm 20:53 Clear 63 17.2 56 13.3 78 78 ESE 8 13 29.72 1007 10 16 0.00 0.00
9:53 pm 21:53 Mostly Cloudy 63 17.2 56 13.3 78 78 SE 16 26 29.72 1006 10 16 0.00 0.00
10:53 pm 22:53 Clear 64 17.8 54 12.2 70 70 ESE 10 17 29.74 1007 10 16 0.00 0.00
11:53 pm 23:53 Clear 63 17.2 55 12.8 76 76 ESE 10 17 29.75 1007 10 16 0.00 0.00

Powered by AerisWeather